Location: Carson
(33.8314°N, 118.2820°W)
Time: 13:00:43
(UTC+00:00)

H-2A R/B - Pass Details

Date: 23 November 2020
Orbit: 529 x 651 km, 98.3° (Epoch: 21 January)

Event Time Altitude Azimuth Distance (km) Brightness Sun altitude
Rises 13:49:13 0° 12° (NNE) 2,707 5.8 -9.4°
Reaches altitude 10° 13:51:21 10° 12° (NNE) 1,799 4.9 -8.9°
Maximum altitude 13:55:13 87° 286° (WNW) 537 2.2 -8.2°
Drops below altitude 10° 13:59:02 10° 195° (SSW) 1,767 5.0 -7.4°
Sets 14:01:06 0° 194° (SSW) 2,653 5.9 -7.0°
